"Sample Date","Sample Time","Sensor Name","Sample Value","Units","Flow Rate","Sample Interval","Sample Volume","Laser Status","Number Channels","Micron Size 0","Counts/Channel 0","Micron Size 1","Counts/Channel 1","Micron Size 2","Counts/Channel 2","Micron Size 3","Counts/Channel 3","Micron Size 4","Counts/Channel 4","Micron Size 5","Counts/Channel 5","Micron Size 6","Counts/Channel 6","Micron Size 7","Counts/Channel 7","Micron Size 8","Counts/Channel 8","Micron Size 9","Counts/Channel 9","Micron Size 10","Counts/Channel 10","Micron Size 11","Counts/Channel 11","Micron Size 12","Counts/Channel 12","Micron Size 13","Counts/Channel 13","Micron Size 14","Counts/Channel 14","Micron Size 15","Counts/Channel 15","Micron Size 16","Counts/Channel 16","Micron Size 17","Counts/Channel 17","Micron Size 18","Counts/Channel 18","Micron Size 19","Counts/Channel 19","Micron Size 20","Counts/Channel 20","Micron Size 21","Counts/Channel 21","Micron Size 22","Counts/Channel 22","Micron Size 23","Counts/Channel 23","Micron Size 24","Counts/Channel 24","Micron Size 25","Counts/Channel 25","Micron Size 26","Counts/Channel 26","Micron Size 27","Counts/Channel 27","Micron Size 28","Counts/Channel 28","Micron Size 29","Counts/Channel 29","Micron Size 30","Counts/Channel 30","Micron Size 31","Counts/Channel 31"
"07/09/06","03:00:00","AMMA06",28905.000,"cc",28340.996,6.00,2834.100,1,6,0.100,17018.000,0.200,10272.000,0.300,1299.000,0.500,205.000,1.000,111.000,5.000,0
"07/09/06","03:00:06","AMMA06",28777.000,"cc",28289.955,6.00,2828.996,1,6,0.100,16890.000,0.200,10316.000,0.300,1239.000,0.500,210.000,1.000,122.000,5.000,0
"07/09/06","03:00:12","AMMA06",28688.000,"cc",28324.805,6.00,2832.481,1,6,0.100,16774.000,0.200,10339.000,0.300,1247.000,0.500,213.000,1.000,115.000,5.000,0
"07/09/06","03:00:18","AMMA06",28813.000,"cc",28328.402,6.00,2832.840,1,6,0.100,16921.000,0.200,10270.000,0.300,1305.000,0.500,226.000,1.000,91.000,5.000,0
"07/09/06","03:00:24","AMMA06",29525.000,"cc",28318.477,6.00,2831.848,1,6,0.100,17291.000,0.200,10461.000,0.300,1384.000,0.500,268.000,1.000,121.000,5.000,0
"07/09/06","03:00:30","AMMA06",28746.000,"cc",28325.182,6.00,2832.518,1,6,0.100,16827.000,0.200,10214.000,0.300,1323.000,0.500,242.000,1.000,140.000,5.000,0
"07/09/06","03:00:36","AMMA06",29282.000,"cc",28310.693,6.00,2831.070,1,6,0.100,17150.000,0.200,10481.000,0.300,1299.000,0.500,216.000,1.000,136.000,5.000,0
"07/09/06","03:00:42","AMMA06",28829.000,"cc",28303.715,6.00,2830.372,1,6,0.100,16768.000,0.200,10363.000,0.300,1328.000,0.500,241.000,1.000,129.000,5.000,0
"07/09/06","03:00:48","AMMA06",28470.000,"cc",28338.637,6.00,2833.864,1,6,0.100,16650.000,0.200,10263.000,0.300,1247.000,0.500,210.000,1.000,100.000,5.000,0
"07/09/06","03:00:54","AMMA06",29473.000,"cc",28318.422,6.00,2831.842,1,6,0.100,17302.000,0.200,10490.000,0.300,1355.000,0.500,217.000,1.000,109.000,5.000,0
"07/09/06","03:01:00","AMMA06",29331.000,"cc",28315.844,6.00,2831.585,1,6,0.100,17253.000,0.200,10429.000,0.300,1291.000,0.500,227.000,1.000,131.000,5.000,0
"07/09/06","03:01:06","AMMA06",28818.000,"cc",28288.867,6.00,2828.887,1,6,0.100,16818.000,0.200,10429.000,0.300,1268.000,0.500,205.000,1.000,98.000,5.000,0
"07/09/06","03:01:12","AMMA06",28774.000,"cc",28385.760,6.00,2838.576,1,6,0.100,16859.000,0.200,10364.000,0.300,1241.000,0.500,170.000,1.000,140.000,5.000,0
"07/09/06","03:01:18","AMMA06",28919.000,"cc",28294.420,6.00,2829.442,1,6,0.100,17042.000,0.200,10255.000,0.300,1284.000,0.500,222.000,1.000,116.000,5.000,0
"07/09/06","03:01:24","AMMA06",29299.000,"cc",28323.525,6.00,2832.353,1,6,0.100,16932.000,0.200,10561.000,0.300,1429.000,0.500,256.000,1.000,121.000,5.000,0
"07/09/06","03:01:30","AMMA06",29145.000,"cc",28317.320,6.00,2831.732,1,6,0.100,17081.000,0.200,10389.000,0.300,1332.000,0.500,214.000,1.000,129.000,5.000,0
"07/09/06","03:01:36","AMMA06",28823.000,"cc",28312.197,6.00,2831.220,1,6,0.100,16877.000,0.200,10313.000,0.300,1316.000,0.500,187.000,1.000,130.000,5.000,0
"07/09/06","03:01:42","AMMA06",28852.000,"cc",28277.309,6.00,2827.731,1,6,0.100,16954.000,0.200,10360.000,0.300,1240.000,0.500,187.000,1.000,111.000,5.000,0
"07/09/06","03:01:48","AMMA06",30644.000,"cc",28292.461,6.00,2829.246,1,6,0.100,17703.000,0.200,10824.000,0.300,1597.000,0.500,351.000,1.000,169.000,5.000,0
"07/09/06","03:01:54","AMMA06",30765.000,"cc",28303.877,6.00,2830.388,1,6,0.100,17525.000,0.200,10892.000,0.300,1722.000,0.500,443.000,1.000,183.000,5.000,0
"07/09/06","03:02:00","AMMA06",29715.000,"cc",28326.361,6.00,2832.636,1,6,0.100,17210.000,0.200,10585.000,0.300,1501.000,0.500,273.000,1.000,146.000,5.000,0
"07/09/06","03:02:06","AMMA06",29704.000,"cc",28315.992,6.00,2831.599,1,6,0.100,17061.000,0.200,10734.000,0.300,1480.000,0.500,290.000,1.000,139.000,5.000,0
"07/09/06","03:02:12","AMMA06",29672.000,"cc",28333.787,6.00,2833.379,1,6,0.100,17043.000,0.200,10671.000,0.300,1533.000,0.500,266.000,1.000,159.000,5.000,0
"07/09/06","03:02:18","AMMA06",28831.000,"cc",28290.190,6.00,2829.019,1,6,0.100,16860.000,0.200,10272.000,0.300,1353.000,0.500,218.000,1.000,128.000,5.000,0
"07/09/06","03:02:24","AMMA06",28864.000,"cc",28335.746,6.00,2833.575,1,6,0.100,16838.000,0.200,10348.000,0.300,1337.000,0.500,222.000,1.000,119.000,5.000,0
"07/09/06","03:02:30","AMMA06",28733.000,"cc",28327.293,6.00,2832.730,1,6,0.100,16700.000,0.200,10430.000,0.300,1318.000,0.500,184.000,1.000,101.000,5.000,0
"07/09/06","03:02:36","AMMA06",28557.000,"cc",28336.498,6.00,2833.650,1,6,0.100,16490.000,0.200,10445.000,0.300,1336.000,0.500,178.000,1.000,108.000,5.000,0
"07/09/06","03:02:42","AMMA06",28341.000,"cc",28293.369,6.00,2829.337,1,6,0.100,16383.000,0.200,10379.000,0.300,1276.000,0.500,194.000,1.000,109.000,5.000,0
"07/09/06","03:02:48","AMMA06",28537.000,"cc",28341.647,6.00,2834.165,1,6,0.100,16491.000,0.200,10389.000,0.300,1346.000,0.500,194.000,1.000,117.000,5.000,0
"07/09/06","03:02:54","AMMA06",28481.000,"cc",28313.199,6.00,2831.320,1,6,0.100,16382.000,0.200,10499.000,0.300,1338.000,0.500,175.000,1.000,87.000,5.000,0
"07/09/06","03:03:00","AMMA06",28352.000,"cc",28312.078,6.00,2831.208,1,6,0.100,16460.000,0.200,10297.000,0.300,1303.000,0.500,186.000,1.000,106.000,5.000,0
"07/09/06","03:03:06","AMMA06",28455.000,"cc",28346.676,6.00,2834.668,1,6,0.100,16564.000,0.200,10200.000,0.300,1355.000,0.500,215.000,1.000,121.000,5.000,0
"07/09/06","03:03:12","AMMA06",29009.000,"cc",28320.545,6.00,2832.055,1,6,0.100,16747.000,0.200,10494.000,0.300,1386.000,0.500,244.000,1.000,138.000,5.000,0
"07/09/06","03:03:18","AMMA06",29447.000,"cc",28304.723,6.00,2830.472,1,6,0.100,16857.000,0.200,10522.000,0.300,1584.000,0.500,306.000,1.000,178.000,5.000,0
"07/09/06","03:03:24","AMMA06",28928.000,"cc",28346.762,6.00,2834.676,1,6,0.100,16761.000,0.200,10422.000,0.300,1357.000,0.500,253.000,1.000,135.000,5.000,0
"07/09/06","03:03:30","AMMA06",28441.000,"cc",28306.578,6.00,2830.658,1,6,0.100,16435.000,0.200,10370.000,0.300,1320.000,0.500,215.000,1.000,101.000,5.000,0
"07/09/06","03:03:36","AMMA06",28438.000,"cc",28294.326,6.00,2829.433,1,6,0.100,16416.000,0.200,10393.000,0.300,1291.000,0.500,216.000,1.000,122.000,5.000,0
"07/09/06","03:03:42","AMMA06",28358.000,"cc",28331.666,6.00,2833.167,1,6,0.100,16443.000,0.200,10153.000,0.300,1355.000,0.500,280.000,1.000,127.000,5.000,0
"07/09/06","03:03:48","AMMA06",29411.000,"cc",28316.898,6.00,2831.690,1,6,0.100,16829.000,0.200,10403.000,0.300,1641.000,0.500,354.000,1.000,184.000,5.000,0
"07/09/06","03:03:54","AMMA06",29220.000,"cc",28335.889,6.00,2833.589,1,6,0.100,16951.000,0.200,10249.000,0.300,1519.000,0.500,322.000,1.000,179.000,5.000,0
"07/09/06","03:04:00","AMMA06",28197.000,"cc",28305.027,6.00,2830.503,1,6,0.100,16342.000,0.200,10125.000,0.300,1360.000,0.500,243.000,1.000,127.000,5.000,0
"07/09/06","03:04:06","AMMA06",28298.000,"cc",28311.225,6.00,2831.123,1,6,0.100,16516.000,0.200,10056.000,0.300,1363.000,0.500,246.000,1.000,117.000,5.000,0
"07/09/06","03:04:12","AMMA06",29304.000,"cc",28318.934,6.00,2831.894,1,6,0.100,16869.000,0.200,10337.000,0.300,1565.000,0.500,370.000,1.000,163.000,5.000,0
"07/09/06","03:04:18","AMMA06",27951.000,"cc",28296.236,6.00,2829.624,1,6,0.100,16225.000,0.200,10007.000,0.300,1343.000,0.500,260.000,1.000,116.000,5.000,0
"07/09/06","03:04:24","AMMA06",27852.000,"cc",28344.506,6.00,2834.451,1,6,0.100,16201.000,0.200,10033.000,0.300,1282.000,0.500,225.000,1.000,111.000,5.000,0
"07/09/06","03:04:30","AMMA06",27917.000,"cc",28306.211,6.00,2830.621,1,6,0.100,16468.000,0.200,9924.000,0.300,1238.000,0.500,192.000,1.000,95.000,5.000,0
"07/09/06","03:04:36","AMMA06",28039.000,"cc",28283.563,6.00,2828.356,1,6,0.100,16514.000,0.200,9861.000,0.300,1339.000,0.500,215.000,1.000,110.000,5.000,0
"07/09/06","03:04:42","AMMA06",28584.000,"cc",28312.908,6.00,2831.291,1,6,0.100,16631.000,0.200,10274.000,0.300,1308.000,0.500,237.000,1.000,134.000,5.000,0
"07/09/06","03:04:48","AMMA06",28217.000,"cc",28324.178,6.00,2832.418,1,6,0.100,16635.000,0.200,9923.000,0.300,1309.000,0.500,220.000,1.000,130.000,5.000,0
"07/09/06","03:04:54","AMMA06",27664.000,"cc",28321.256,6.00,2832.126,1,6,0.100,16454.000,0.200,9636.000,0.300,1247.000,0.500,200.000,1.000,127.000,5.000,0
"07/09/06","03:05:00","AMMA06",28057.000,"cc",28281.539,6.00,2828.154,1,6,0.100,16405.000,0.200,9976.000,0.300,1321.000,0.500,231.000,1.000,124.000,5.000,0
"07/09/06","03:05:06","AMMA06",30095.000,"cc",28377.291,6.00,2837.729,1,6,0.100,17287.000,0.200,10333.000,0.300,1762.000,0.500,489.000,1.000,224.000,5.000,0
"07/09/06","03:05:12","AMMA06",29281.000,"cc",28259.922,6.00,2825.992,1,6,0.100,16998.000,0.200,10134.000,0.300,1586.000,0.500,393.000,1.000,170.000,5.000,0
"07/09/06","03:05:18","AMMA06",31348.000,"cc",28318.065,6.00,2831.807,1,6,0.100,17881.000,0.200,10740.000,0.300,1875.000,0.500,594.000,1.000,258.000,5.000,0
"07/09/06","03:05:24","AMMA06",29594.000,"cc",28332.820,6.00,2833.282,1,6,0.100,17232.000,0.200,10100.000,0.300,1646.000,0.500,420.000,1.000,196.000,5.000,0
"07/09/06","03:05:30","AMMA06",30654.000,"cc",28347.740,6.00,2834.774,1,6,0.100,17551.000,0.200,10529.000,0.300,1830.000,0.500,533.000,1.000,211.000,5.000,0
"07/09/06","03:05:36","AMMA06",31111.000,"cc",28234.828,6.00,2823.483,1,6,0.100,17832.000,0.200,10534.000,0.300,1920.000,0.500,590.000,1.000,235.000,5.000,0
"07/09/06","03:05:42","AMMA06",32042.000,"cc",28352.068,6.00,2835.207,1,6,0.100,18323.000,0.200,10697.000,0.300,2001.000,0.500,725.000,1.000,296.000,5.000,0
"07/09/06","03:05:48","AMMA06",29385.000,"cc",28340.537,6.00,2834.054,1,6,0.100,17289.000,0.200,10016.000,0.300,1565.000,0.500,339.000,1.000,176.000,5.000,0
"07/09/06","03:05:54","AMMA06",29213.000,"cc",28357.262,6.00,2835.726,1,6,0.100,17103.000,0.200,10072.000,0.300,1503.000,0.500,381.000,1.000,154.000,5.000,0
"07/09/06","03:06:00","AMMA06",28981.000,"cc",28304.023,6.00,2830.403,1,6,0.100,16782.000,0.200,10129.000,0.300,1500.000,0.500,387.000,1.000,183.000,5.000,0
"07/09/06","03:06:06","AMMA06",29936.000,"cc",28348.779,6.00,2834.878,1,6,0.100,17498.000,0.200,10346.000,0.300,1550.000,0.500,365.000,1.000,177.000,5.000,0
"07/09/06","03:06:12","AMMA06",28315.000,"cc",28336.979,6.00,2833.698,1,6,0.100,16789.000,0.200,9818.000,0.300,1315.000,0.500,266.000,1.000,127.000,5.000,0
"07/09/06","03:06:18","AMMA06",28531.000,"cc",28272.559,6.00,2827.256,1,6,0.100,16938.000,0.200,9807.000,0.300,1375.000,0.500,269.000,1.000,142.000,5.000,0
"07/09/06","03:06:24","AMMA06",28633.000,"cc",28329.307,6.00,2832.931,1,6,0.100,16826.000,0.200,9889.000,0.300,1450.000,0.500,315.000,1.000,153.000,5.000,0
"07/09/06","03:06:30","AMMA06",29759.000,"cc",28299.539,6.00,2829.954,1,6,0.100,17422.000,0.200,10182.000,0.300,1558.000,0.500,418.000,1.000,179.000,5.000,0
"07/09/06","03:06:36","AMMA06",29191.000,"cc",28320.268,6.00,2832.027,1,6,0.100,17161.000,0.200,10066.000,0.300,1437.000,0.500,368.000,1.000,159.000,5.000,0
"07/09/06","03:06:42","AMMA06",29106.000,"cc",28333.568,6.00,2833.357,1,6,0.100,16937.000,0.200,10171.000,0.300,1533.000,0.500,331.000,1.000,134.000,5.000,0
"07/09/06","03:06:48","AMMA06",29635.000,"cc",28297.510,6.00,2829.751,1,6,0.100,17378.000,0.200,10138.000,0.300,1566.000,0.500,364.000,1.000,189.000,5.000,0
"07/09/06","03:06:54","AMMA06",28108.000,"cc",28311.250,6.00,2831.125,1,6,0.100,16693.000,0.200,9668.000,0.300,1326.000,0.500,280.000,1.000,141.000,5.000,0
"07/09/06","03:07:00","AMMA06",28371.000,"cc",28289.195,6.00,2828.920,1,6,0.100,16755.000,0.200,9937.000,0.300,1315.000,0.500,229.000,1.000,135.000,5.000,0
"07/09/06","03:07:06","AMMA06",28335.000,"cc",28307.154,6.00,2830.716,1,6,0.100,16779.000,0.200,10035.000,0.300,1219.000,0.500,213.000,1.000,89.000,5.000,0
"07/09/06","03:07:12","AMMA06",28047.000,"cc",28348.301,6.00,2834.830,1,6,0.100,16756.000,0.200,9792.000,0.300,1185.000,0.500,194.000,1.000,120.000,5.000,0
"07/09/06","03:07:18","AMMA06",28208.000,"cc",28312.039,6.00,2831.204,1,6,0.100,16721.000,0.200,9932.000,0.300,1250.000,0.500,192.000,1.000,113.000,5.000,0
"07/09/06","03:07:24","AMMA06",28181.000,"cc",28305.340,6.00,2830.534,1,6,0.100,16732.000,0.200,9971.000,0.300,1193.000,0.500,183.000,1.000,102.000,5.000,0
"07/09/06","03:07:30","AMMA06",28385.000,"cc",28359.986,6.00,2835.999,1,6,0.100,16772.000,0.200,9947.000,0.300,1304.000,0.500,242.000,1.000,120.000,5.000,0
"07/09/06","03:07:36","AMMA06",28660.000,"cc",28299.693,6.00,2829.970,1,6,0.100,16936.000,0.200,9995.000,0.300,1351.000,0.500,252.000,1.000,126.000,5.000,0
"07/09/06","03:07:42","AMMA06",29085.000,"cc",28311.697,6.00,2831.170,1,6,0.100,17089.000,0.200,10149.000,0.300,1345.000,0.500,340.000,1.000,162.000,5.000,0
"07/09/06","03:07:48","AMMA06",29040.000,"cc",28302.481,6.00,2830.248,1,6,0.100,17029.000,0.200,10166.000,0.300,1407.000,0.500,286.000,1.000,152.000,5.000,0
"07/09/06","03:07:54","AMMA06",28398.000,"cc",28338.816,6.00,2833.882,1,6,0.100,16767.000,0.200,10010.000,0.300,1274.000,0.500,212.000,1.000,135.000,5.000,0
"07/09/06","03:08:00","AMMA06",28288.000,"cc",28326.508,6.00,2832.651,1,6,0.100,16638.000,0.200,10152.000,0.300,1223.000,0.500,164.000,1.000,111.000,5.000,0
"07/09/06","03:08:06","AMMA06",28417.000,"cc",28339.190,6.00,2833.919,1,6,0.100,16687.000,0.200,10156.000,0.300,1261.000,0.500,204.000,1.000,109.000,5.000,0
"07/09/06","03:08:12","AMMA06",28826.000,"cc",28337.811,6.00,2833.781,1,6,0.100,16959.000,0.200,10294.000,0.300,1247.000,0.500,223.000,1.000,103.000,5.000,0
"07/09/06","03:08:18","AMMA06",28105.000,"cc",28297.699,6.00,2829.770,1,6,0.100,16348.000,0.200,10194.000,0.300,1243.000,0.500,207.000,1.000,113.000,5.000,0
"07/09/06","03:08:24","AMMA06",28523.000,"cc",28283.555,6.00,2828.356,1,6,0.100,16731.000,0.200,10209.000,0.300,1264.000,0.500,230.000,1.000,89.000,5.000,0
"07/09/06","03:08:30","AMMA06",28514.000,"cc",28339.043,6.00,2833.905,1,6,0.100,16735.000,0.200,10173.000,0.300,1271.000,0.500,218.000,1.000,117.000,5.000,0
"07/09/06","03:08:36","AMMA06",29406.000,"cc",28352.168,6.00,2835.217,1,6,0.100,16972.000,0.200,10505.000,0.300,1477.000,0.500,305.000,1.000,147.000,5.000,0
"07/09/06","03:08:42","AMMA06",28989.000,"cc",28267.897,6.00,2826.790,1,6,0.100,16745.000,0.200,10463.000,0.300,1396.000,0.500,249.000,1.000,136.000,5.000,0
"07/09/06","03:08:48","AMMA06",28274.000,"cc",28303.639,6.00,2830.364,1,6,0.100,16628.000,0.200,10150.000,0.300,1199.000,0.500,189.000,1.000,108.000,5.000,0
"07/09/06","03:08:54","AMMA06",28592.000,"cc",28353.539,6.00,2835.354,1,6,0.100,16627.000,0.200,10365.000,0.300,1337.000,0.500,174.000,1.000,89.000,5.000,0
"07/09/06","03:09:00","AMMA06",28523.000,"cc",28366.459,6.00,2836.646,1,6,0.100,16799.000,0.200,10186.000,0.300,1263.000,0.500,145.000,1.000,130.000,5.000,0
"07/09/06","03:09:06","AMMA06",28424.000,"cc",28311.697,6.00,2831.170,1,6,0.100,16354.000,0.200,10425.000,0.300,1334.000,0.500,184.000,1.000,127.000,5.000,0
"07/09/06","03:09:12","AMMA06",28729.000,"cc",28254.881,6.00,2825.488,1,6,0.100,16809.000,0.200,10229.000,0.300,1371.000,0.500,224.000,1.000,96.000,5.000,0
"07/09/06","03:09:18","AMMA06",28467.000,"cc",28241.816,6.00,2824.182,1,6,0.100,16598.000,0.200,10326.000,0.300,1236.000,0.500,199.000,1.000,108.000,5.000,0
"07/09/06","03:09:24","AMMA06",28408.000,"cc",28366.424,6.00,2836.643,1,6,0.100,16426.000,0.200,10374.000,0.300,1307.000,0.500,193.000,1.000,108.000,5.000,0
"07/09/06","03:09:30","AMMA06",28505.000,"cc",28338.125,6.00,2833.813,1,6,0.100,16427.000,0.200,10388.000,0.300,1325.000,0.500,242.000,1.000,123.000,5.000,0
"07/09/06","03:09:36","AMMA06",28564.000,"cc",28337.303,6.00,2833.731,1,6,0.100,16494.000,0.200,10350.000,0.300,1322.000,0.500,248.000,1.000,150.000,5.000,0
"07/09/06","03:09:42","AMMA06",28646.000,"cc",28383.055,6.00,2838.306,1,6,0.100,16621.000,0.200,10326.000,0.300,1357.000,0.500,207.000,1.000,135.000,5.000,0
"07/09/06","03:09:48","AMMA06",28147.000,"cc",28301.529,6.00,2830.153,1,6,0.100,16287.000,0.200,10149.000,0.300,1397.000,0.500,195.000,1.000,119.000,5.000,0
"07/09/06","03:09:54","AMMA06",28766.000,"cc",28270.195,6.00,2827.020,1,6,0.100,16717.000,0.200,10267.000,0.300,1370.000,0.500,261.000,1.000,151.000,5.000,0
"07/09/06","03:10:00","AMMA06",28316.000,"cc",28291.854,6.00,2829.186,1,6,0.100,16412.000,0.200,10247.000,0.300,1328.000,0.500,222.000,1.000,107.000,5.000,0
"07/09/06","03:10:06","AMMA06",28813.000,"cc",28315.301,6.00,2831.530,1,6,0.100,16612.000,0.200,10431.000,0.300,1378.000,0.500,243.000,1.000,149.000,5.000,0
"07/09/06","03:10:12","AMMA06",28473.000,"cc",28367.982,6.00,2836.798,1,6,0.100,16474.000,0.200,10230.000,0.300,1408.000,0.500,228.000,1.000,133.000,5.000,0
"07/09/06","03:10:18","AMMA06",28594.000,"cc",28288.408,6.00,2828.841,1,6,0.100,16536.000,0.200,10231.000,0.300,1444.000,0.500,239.000,1.000,144.000,5.000,0
"07/09/06","03:10:24","AMMA06",28416.000,"cc",28320.797,6.00,2832.080,1,6,0.100,16399.000,0.200,10229.000,0.300,1397.000,0.500,244.000,1.000,147.000,5.000,0
"07/09/06","03:10:30","AMMA06",28498.000,"cc",28294.781,6.00,2829.478,1,6,0.100,16329.000,0.200,10358.000,0.300,1430.000,0.500,258.000,1.000,123.000,5.000,0
"07/09/06","03:10:36","AMMA06",28547.000,"cc",28342.469,6.00,2834.247,1,6,0.100,16458.000,0.200,10244.000,0.300,1449.000,0.500,271.000,1.000,125.000,5.000,0
"07/09/06","03:10:42","AMMA06",28808.000,"cc",28326.807,6.00,2832.681,1,6,0.100,16506.000,0.200,10421.000,0.300,1473.000,0.500,272.000,1.000,136.000,5.000,0
"07/09/06","03:10:48","AMMA06",28144.000,"cc",28318.424,6.00,2831.843,1,6,0.100,16341.000,0.200,10138.000,0.300,1335.000,0.500,204.000,1.000,126.000,5.000,0
"07/09/06","03:10:54","AMMA06",28086.000,"cc",28312.986,6.00,2831.299,1,6,0.100,16167.000,0.200,10239.000,0.300,1346.000,0.500,209.000,1.000,125.000,5.000,0
"07/09/06","03:11:00","AMMA06",27998.000,"cc",28336.248,6.00,2833.625,1,6,0.100,16130.000,0.200,10212.000,0.300,1318.000,0.500,194.000,1.000,144.000,5.000,0
"07/09/06","03:11:06","AMMA06",28188.000,"cc",28303.154,6.00,2830.316,1,6,0.100,16254.000,0.200,10281.000,0.300,1333.000,0.500,193.000,1.000,127.000,5.000,0
"07/09/06","03:11:12","AMMA06",28429.000,"cc",28312.166,6.00,2831.217,1,6,0.100,16372.000,0.200,10373.000,0.300,1361.000,0.500,206.000,1.000,117.000,5.000,0
"07/09/06","03:11:18","AMMA06",28612.000,"cc",28333.496,6.00,2833.350,1,6,0.100,16493.000,0.200,10277.000,0.300,1434.000,0.500,249.000,1.000,159.000,5.000,0
"07/09/06","03:11:24","AMMA06",28863.000,"cc",28344.248,6.00,2834.425,1,6,0.100,16340.000,0.200,10519.000,0.300,1544.000,0.500,314.000,1.000,146.000,5.000,0
"07/09/06","03:11:30","AMMA06",29065.000,"cc",28330.107,6.00,2833.011,1,6,0.100,16756.000,0.200,10437.000,0.300,1450.000,0.500,264.000,1.000,158.000,5.000,0
"07/09/06","03:11:36","AMMA06",28975.000,"cc",28333.496,6.00,2833.350,1,6,0.100,16695.000,0.200,10446.000,0.300,1441.000,0.500,276.000,1.000,117.000,5.000,0
"07/09/06","03:11:42","AMMA06",28361.000,"cc",28217.949,6.00,2821.795,1,6,0.100,16341.000,0.200,10240.000,0.300,1342.000,0.500,297.000,1.000,141.000,5.000,0
"07/09/06","03:11:48","AMMA06",28709.000,"cc",28303.756,6.00,2830.376,1,6,0.100,16448.000,0.200,10442.000,0.300,1427.000,0.500,247.000,1.000,145.000,5.000,0
"07/09/06","03:11:54","AMMA06",28232.000,"cc",28342.656,6.00,2834.266,1,6,0.100,16322.000,0.200,10142.000,0.300,1384.000,0.500,253.000,1.000,131.000,5.000,0
"07/09/06","03:12:00","AMMA06",27937.000,"cc",28273.932,6.00,2827.393,1,6,0.100,16211.000,0.200,10037.000,0.300,1336.000,0.500,232.000,1.000,121.000,5.000,0
"07/09/06","03:12:06","AMMA06",28094.000,"cc",28320.400,6.00,2832.040,1,6,0.100,16043.000,0.200,10359.000,0.300,1342.000,0.500,226.000,1.000,124.000,5.000,0
"07/09/06","03:12:12","AMMA06",27962.000,"cc",28315.518,6.00,2831.552,1,6,0.100,16193.000,0.200,10142.000,0.300,1319.000,0.500,199.000,1.000,109.000,5.000,0
"07/09/06","03:12:18","AMMA06",27948.000,"cc",28298.934,6.00,2829.894,1,6,0.100,16151.000,0.200,10116.000,0.300,1353.000,0.500,204.000,1.000,124.000,5.000,0
"07/09/06","03:12:24","AMMA06",27846.000,"cc",28343.592,6.00,2834.359,1,6,0.100,16095.000,0.200,10183.000,0.300,1295.000,0.500,179.000,1.000,94.000,5.000,0
"07/09/06","03:12:30","AMMA06",27548.000,"cc",28349.285,6.00,2834.929,1,6,0.100,15943.000,0.200,10010.000,0.300,1325.000,0.500,171.000,1.000,99.000,5.000,0
"07/09/06","03:12:36","AMMA06",27677.000,"cc",28318.436,6.00,2831.844,1,6,0.100,15928.000,0.200,10114.000,0.300,1305.000,0.500,218.000,1.000,112.000,5.000,0
"07/09/06","03:12:42","AMMA06",27993.000,"cc",28297.768,6.00,2829.777,1,6,0.100,16128.000,0.200,10291.000,0.300,1279.000,0.500,181.000,1.000,114.000,5.000,0
"07/09/06","03:12:48","AMMA06",28227.000,"cc",28319.955,6.00,2831.996,1,6,0.100,16513.000,0.200,10131.000,0.300,1276.000,0.500,191.000,1.000,116.000,5.000,0
"07/09/06","03:12:54","AMMA06",28364.000,"cc",28285.346,6.00,2828.535,1,6,0.100,16298.000,0.200,10364.000,0.300,1363.000,0.500,211.000,1.000,128.000,5.000,0
"07/09/06","03:13:00","AMMA06",28189.000,"cc",28329.137,6.00,2832.914,1,6,0.100,16217.000,0.200,10253.000,0.300,1377.000,0.500,222.000,1.000,120.000,5.000,0
"07/09/06","03:13:06","AMMA06",27852.000,"cc",28353.213,6.00,2835.322,1,6,0.100,16038.000,0.200,10123.000,0.300,1361.000,0.500,209.000,1.000,121.000,5.000,0
"07/09/06","03:13:12","AMMA06",28079.000,"cc",28339.332,6.00,2833.933,1,6,0.100,16352.000,0.200,10067.000,0.300,1323.000,0.500,220.000,1.000,117.000,5.000,0
"07/09/06","03:13:18","AMMA06",27683.000,"cc",28317.604,6.00,2831.761,1,6,0.100,15977.000,0.200,10020.000,0.300,1354.000,0.500,206.000,1.000,126.000,5.000,0
"07/09/06","03:13:24","AMMA06",27737.000,"cc",28308.238,6.00,2830.824,1,6,0.100,16022.000,0.200,10117.000,0.300,1303.000,0.500,188.000,1.000,107.000,5.000,0
"07/09/06","03:13:30","AMMA06",27950.000,"cc",28320.191,6.00,2832.019,1,6,0.100,16212.000,0.200,10142.000,0.300,1279.000,0.500,200.000,1.000,117.000,5.000,0
"07/09/06","03:13:36","AMMA06",27770.000,"cc",28290.272,6.00,2829.027,1,6,0.100,16078.000,0.200,10095.000,0.300,1286.000,0.500,200.000,1.000,111.000,5.000,0
"07/09/06","03:13:42","AMMA06",28066.000,"cc",28335.535,6.00,2833.554,1,6,0.100,16057.000,0.200,10315.000,0.300,1339.000,0.500,223.000,1.000,132.000,5.000,0
"07/09/06","03:13:48","AMMA06",27985.000,"cc",28322.574,6.00,2832.258,1,6,0.100,16308.000,0.200,10140.000,0.300,1271.000,0.500,161.000,1.000,105.000,5.000,0
"07/09/06","03:13:54","AMMA06",28235.000,"cc",28280.621,6.00,2828.062,1,6,0.100,16172.000,0.200,10367.000,0.300,1352.000,0.500,219.000,1.000,125.000,5.000,0
"07/09/06","03:14:00","AMMA06",28231.000,"cc",28290.166,6.00,2829.017,1,6,0.100,16313.000,0.200,10271.000,0.300,1332.000,0.500,203.000,1.000,112.000,5.000,0
"07/09/06","03:14:06","AMMA06",28558.000,"cc",28336.971,6.00,2833.697,1,6,0.100,16541.000,0.200,10256.000,0.300,1411.000,0.500,223.000,1.000,127.000,5.000,0
"07/09/06","03:14:12","AMMA06",28414.000,"cc",28317.627,6.00,2831.763,1,6,0.100,16391.000,0.200,10218.000,0.300,1462.000,0.500,224.000,1.000,119.000,5.000,0